1495699200.3,3114,14.44,73624.3,4.73,-0.19,-0.27,0,*47
1495699201.48,3115,14.5,73624.8,4.73,-0.37,-0.37,0,*4B
1495699202.66,3116,14.5,73628.5,4.73,-0.41,-0.37,0,*49
1495699203.82,3117,14.44,73628.0,4.73,-0.03,0.05,0,*62
1495699204.99,3118,14.5,73632.0,4.73,-0.07,-0.07,0,*46
1495699206.16,3119,14.5,73630.0,4.73,-0.53,-0.61,0,*46
1495699207.33,3120,14.5,73628.8,4.73,-0.49,-0.53,0,*46
1495699208.5,3121,14.5,73630.0,4.73,-0.53,-0.53,0,*4C
1495699209.67,3122,14.44,73626.0,4.73,-0.53,-0.53,0,*4F
1495699210.85,3123,14.5,73628.3,4.73,-0.07,-0.15,0,*7D
1495699212.02,3124,14.44,73626.5,4.73,-0.15,-0.07,0,*7A
1495699213.21,3125,14.5,73632.5,4.73,-0.37,-0.27,0,*49
1495699214.44,3126,14.5,73628.8,4.73,-0.27,-0.27,0,*4B
1495699215.62,3127,14.44,73626.3,4.73,-0.19,-0.15,0,*46
1495699216.78,3128,14.5,73632.8,4.73,-0.07,-0.03,0,*41
1495699217.95,3129,14.5,73632.3,4.73,-0.19,-0.29,0,*47
1495699219.13,3130,14.5,73630.0,4.73,-0.49,-0.49,0,*4C
1495699220.3,3131,14.5,73628.5,4.73,-0.49,-0.29,0,*4B
1495699221.49,3132,14.5,73626.8,4.73,-0.03,0.21,0,*53
1495699222.65,3133,14.5,73624.8,4.73,-0.03,0.05,0,*64
1495699223.82,3134,14.5,73626.3,4.73,-0.19,-0.07,0,*77
1495699224.99,3135,14.5,73626.8,4.73,-0.07,0.09,0,*6A
1495699226.15,3136,14.5,73626.3,4.73,-0.15,0.05,0,*56
1495699227.31,3137,14.5,73628.8,4.73,-0.07,0.05,0,*64
1495699228.51,3138,14.5,73626.8,4.73,-0.19,-0.27,0,*49
1495699229.73,3139,14.5,73626.8,4.75,-0.29,-0.27,0,*4D
1495699230.94,3140,14.5,73624.0,4.75,-0.69,-0.77,0,*42
1495699232.11,3141,14.44,73624.5,4.73,-0.69,-0.61,0,*42
1495699233.31,3142,14.5,73628.0,4.73,-0.27,-0.19,0,*44
1495699234.48,3143,14.5,73628.3,4.73,-0.15,-0.03,0,*7F
1495699235.68,3144,14.5,73630.5,4.73,-0.27,-0.15,0,*4E
1495699236.86,3145,14.5,73624.3,4.73,-0.37,-0.37,0,*4E
1495699238.02,3146,14.5,73626.3,4.73,-0.07,0.09,0,*6E
1495699239.22,3147,14.5,73626.5,4.73,-0.27,-0.19,0,*41
1495699240.4,3148,14.44,73624.5,4.73,-0.41,-0.41,0,*43
1495699241.57,3149,14.5,73624.8,4.73,-0.65,-0.61,0,*46
1495699242.75,3150,14.5,73626.8,4.73,-0.41,-0.29,0,*44
1495699243.97,3151,14.5,73626.8,4.73,-0.27,-0.27,0,*4B
1495699245.14,3152,14.5,73624.0,4.73,-0.37,-0.29,0,*47
1495699246.34,3153,14.5,73626.5,4.73,-0.27,-0.15,0,*48
1495699247.51,3154,14.5,73626.8,4.73,-0.65,-0.61,0,*4A
1495699248.71,3155,14.5,73624.8,4.73,-0.27,-0.15,0,*4E
1495699249.89,3156,14.5,73628.8,4.73,-0.65,-0.49,0,*42
1495699251.07,3157,14.5,73624.8,4.73,-0.81,-0.77,0,*44
1495699252.24,3158,14.5,73624.8,4.73,-0.69,-0.53,0,*4B
1495699253.42,3159,14.5,73624.0,4.73,-0.69,-0.53,0,*4A
1495699254.59,3160,14.5,73624.0,4.73,-0.65,-0.53,0,*4C
1495699255.78,3161,14.5,73628.8,4.73,-0.41,-0.41,0,*48
1495699256.95,3162,14.5,73626.5,4.73,-0.69,-0.65,0,*47
1495699258.13,3163,14.5,73626.5,4.73,-0.81,-0.77,0,*43
1495699259.3,3164,14.5,73628.3,4.73,-0.81,-0.69,0,*4B
1495699260.48,3165,14.5,73630.3,4.73,-0.61,-0.49,0,*46
1495699261.7,3166,14.5,73628.5,4.73,-1.05,-0.93,0,*71
1495699262.89,3167,14.5,73628.0,4.69,-1.21,-1.21,0,*45
1495699264.12,3168,14.5,73630.3,4.69,-0.97,-0.93,0,*4E
1495699265.29,3169,14.5,73628.0,4.69,-0.69,-0.69,0,*4B
1495699266.52,3170,14.5,73628.5,4.67,-0.85,-0.73,0,*44
1495699267.69,3171,14.5,73628.5,4.69,-0.41,-0.29,0,*4C
1495699268.89,3172,14.5,73630.8,4.69,-0.29,-0.23,0,*4B
1495699270.05,3173,14.5,73628.5,4.69,-0.61,-0.61,0,*40
1495699271.23,3174,14.5,73630.5,4.69,-0.73,-0.81,0,*4A
1495699272.43,3175,14.5,73630.0,4.67,-0.77,-0.73,0,*4C
1495699273.64,3176,14.5,73628.3,4.67,-0.73,-0.73,0,*4B
1495699274.9,3177,14.5,73630.0,4.67,-1.09,-1.01,0,*42
1495699276.11,3178,14.5,73628.3,4.67,-1.33,-1.25,0,*42
1495699277.34,3179,14.5,73630.5,4.63,-1.47,-1.55,0,*43
1495699278.6,3180,14.5,73628.8,4.63,-1.01,-0.93,0,*7C
1495699279.8,3181,14.5,73630.0,4.63,-0.73,-0.65,0,*40
1495699281.05,3182,14.5,73632.3,4.63,-0.93,-1.01,0,*7E
1495699282.23,3183,14.5,73628.5,4.65,-1.67,-1.63,0,*47
1495699283.42,3184,14.5,73632.0,4.61,-1.17,-1.21,0,*45
1495699284.63,3185,14.5,73630.3,4.57,-1.43,-1.51,0,*47
1495699285.81,3186,14.5,73630.3,4.57,-2.27,-2.27,0,*47
1495699287.07,3187,14.5,73622.3,4.55,-2.11,-2.11,0,*44
1495699288.31,3188,14.5,73624.0,4.53,-1.91,-1.87,0,*4A
1495699289.49,3189,14.5,73624.5,4.53,-1.75,-1.75,0,*4C
1495699290.71,3190,14.5,73626.3,4.53,-1.39,-1.29,0,*45
1495699291.96,3191,14.5,73626.3,4.51,-1.01,-0.89,0,*76
1495699293.16,3192,14.5,73624.0,4.51,-1.25,-1.25,0,*44
1495699294.36,3193,14.5,73628.3,4.51,-1.25,-1.25,0,*45
1495699295.56,3194,14.44,73628.3,4.51,-1.25,-1.25,0,*42
1495699296.8,3195,14.5,73634.8,4.51,-1.47,-1.55,0,*40
1495699298.02,3196,14.5,73630.0,4.49,-1.95,-1.95,0,*49
1495699299.21,3197,14.5,73634.8,4.49,-1.33,-1.29,0,*43
1495699300.48,3198,14.5,73634.5,4.47,-1.39,-1.39,0,*49
1495699301.69,3199,14.5,73630.8,4.45,-1.75,-1.87,0,*47
1495699302.9,3200,14.44,73626.8,4.45,-2.11,-2.23,0,*48
1495699304.08,3201,14.5,73634.0,4.45,-1.67,-1.55,0,*49
1495699305.31,3202,14.5,73632.8,4.43,-1.43,-1.33,0,*4A
1495699306.54,3203,14.5,73636.3,4.43,-1.21,-1.13,0,*4D
1495699307.74,3204,14.5,73636.3,4.43,-1.25,-1.25,0,*4B
1495699308.95,3205,14.5,73634.0,4.43,-1.33,-1.33,0,*4A
1495699310.12,3206,14.44,73634.5,4.41,-0.77,-0.69,0,*44
1495699311.3,3207,14.5,73634.8,4.41,-0.73,-0.69,0,*41
1495699312.48,3208,14.5,73636.0,4.41,-0.65,-0.77,0,*46
1495699313.68,3209,14.5,73634.5,4.41,-0.27,-0.19,0,*49
1495699314.85,3210,14.5,73632.8,4.45,-0.69,-0.61,0,*40
1495699316.02,3211,14.5,73634.8,4.45,-0.57,-0.61,0,*4C
1495699317.2,3212,14.5,73634.5,4.45,-0.81,-0.81,0,*4A
1495699318.37,3213,14.5,73634.5,4.45,-0.73,-0.61,0,*48
1495699319.55,3214,14.5,73634.3,4.45,-0.57,-0.49,0,*43
1495699320.77,3215,14.5,73634.3,4.45,-0.23,-0.23,0,*4D
1495699321.94,3216,14.5,73634.5,4.45,-0.11,0.01,0,*52
1495699323.14,3217,14.5,73632.5,4.45,-0.23,-0.11,0,*4E
1495699324.39,3218,14.5,73630.3,4.47,-0.89,-0.97,0,*4D
1495699325.66,3219,14.5,73630.3,4.47,-1.39,-1.39,0,*43
1495699326.86,3220,14.5,73630.5,4.47,-0.53,-0.41,0,*4A
1495699328.11,3221,14.5,73630.0,4.47,-1.09,-0.97,0,*7E
1495699329.32,3222,14.5,73634.3,4.47,-1.21,-1.17,0,*4E
1495699330.55,3223,14.5,73632.0,4.47,-0.93,-0.81,0,*49
1495699331.75,3224,14.5,73632.8,4.47,-0.81,-0.77,0,*44
1495699332.95,3225,14.5,73634.5,4.45,-0.93,-0.73,0,*40
1495699334.15,3226,14.5,73628.3,4.45,-0.85,-0.81,0,*49
1495699335.38,3227,14.5,73634.3,4.45,-1.09,-1.13,0,*47
1495699336.61,3228,14.5,73630.3,4.45,-1.09,-1.09,0,*43
1495699337.8,3229,14.5,73632.3,4.45,-0.85,-0.81,0,*46
1495699339.0,3230,14.5,73628.5,4.45,-0.33,-0.23,0,*4B
1495699340.19,3231,14.5,73630.0,4.45,-0.33,-0.23,0,*4A
1495699341.36,3232,14.5,73630.8,4.45,-0.03,0.09,0,*6F
1495699342.59,3233,14.5,73630.5,4.47,0.17,0.17,0,*4B
1495699343.78,3234,14.5,73626.0,4.47,-0.03,0.05,0,*67
1495699344.98,3235,14.5,73630.3,4.49,-0.23,-0.11,0,*42
1495699346.15,3236,14.5,73628.5,4.49,-0.33,-0.29,0,*4B
1495699347.35,3237,14.5,73626.8,4.51,-0.49,-0.49,0,*48
1495699348.52,3238,14.44,73622.3,4.49,-0.69,-0.65,0,*42
1495699349.72,3239,14.5,73626.5,4.51,-0.19,-0.07,0,*79
1495699350.9,3240,14.5,73624.5,4.49,-0.45,-0.41,0,*45
1495699352.07,3241,14.5,73626.0,4.49,-0.45,-0.29,0,*4A
1495699353.26,3242,14.5,73624.3,4.49,-0.49,-0.41,0,*4B
1495699354.47,3243,14.5,73626.5,4.51,-0.29,-0.27,0,*45
1495699355.68,3244,14.5,73626.3,4.51,0.09,0.13,0,*77
1495699356.9,3245,14.5,73624.8,4.51,0.33,0.33,0,*4D
1495699358.11,3246,14.5,73632.0,4.53,0.21,0.37,0,*4B
1495699359.32,3247,14.5,73628.0,4.55,-0.15,-0.15,0,*4B
1495699360.52,3248,14.5,73628.5,4.53,-0.27,-0.19,0,*4F
1495699361.69,3249,14.5,73624.0,4.53,-0.07,-0.07,0,*43
1495699362.91,3250,14.5,73624.5,4.55,0.13,0.25,0,*48
1495699364.13,3251,14.5,73622.3,4.57,0.21,0.21,0,*4E
1495699365.31,3252,14.5,73624.3,4.57,-0.19,-0.19,0,*4D
1495699366.48,3253,14.5,73622.3,4.57,-0.45,-0.41,0,*48
1495699367.67,3254,14.5,73620.0,4.57,-0.19,-0.11,0,*43
1495699368.84,3255,14.5,73622.0,4.57,-0.19,-0.07,0,*75
1495699370.0,3256,14.5,73624.8,4.61,0.05,0.09,0,*40
1495699371.16,3257,14.5,73624.3,4.57,-0.07,0.01,0,*63
1495699372.37,3258,14.5,73628.3,4.61,0.21,0.21,0,*42
1495699373.56,3259,14.5,73624.0,4.61,0.09,0.17,0,*7C
1495699374.74,3260,14.5,73626.8,4.61,-0.77,-0.77,0,*49
1495699375.9,3261,14.5,73632.3,4.61,-0.07,0.01,0,*63
1495699377.06,3262,14.5,73630.5,4.61,0.09,0.09,0,*4B
1495699378.24,3263,14.5,73626.8,4.65,0.33,0.43,0,*49
1495699379.48,3264,14.5,73626.0,4.63,0.55,0.59,0,*43
1495699380.69,3265,14.5,73626.5,4.65,0.25,0.25,0,*48
1495699381.88,3266,14.5,73626.8,4.65,0.33,0.33,0,*4B
1495699383.05,3267,14.5,73630.5,4.65,-0.03,0.09,0,*6D
1495699384.28,3268,14.5,73624.0,4.67,0.47,0.59,0,*48
1495699385.5,3269,14.5,73626.8,4.69,0.21,0.21,0,*48
1495699386.73,3270,14.5,73624.0,4.69,-1.09,-1.09,0,*40
1495699387.92,3271,14.5,73628.3,4.67,-0.61,-0.57,0,*4A
1495699389.08,3272,14.5,73630.3,4.69,-0.07,0.05,0,*6D
1495699390.26,3273,14.5,73630.5,4.69,0.01,0.17,0,*74
1495699391.44,3274,14.5,73634.0,4.69,0.41,0.43,0,*46
1495699392.63,3275,14.5,73634.8,4.69,0.41,0.43,0,*47
1495699393.78,3276,14.5,73630.3,4.73,0.43,0.43,0,*4D
1495699394.96,3277,14.5,73634.0,4.73,0.37,0.43,0,*4F
1495699396.13,3278,14.5,73630.5,4.73,-0.07,-0.03,0,*47
1495699397.3,3279,14.5,73626.3,4.73,-0.19,-0.07,0,*7D
1495699398.5,3280,14.5,73630.3,4.73,0.37,0.33,0,*40
1495699399.65,3281,14.5,73634.8,4.73,0.43,0.43,0,*45
1495699400.83,3282,14.5,73628.8,4.73,-0.37,-0.29,0,*49
1495699402.02,3283,14.5,73624.0,4.75,-0.37,-0.29,0,*4E
1495699403.25,3284,14.5,73622.0,4.75,0.33,0.37,0,*42
1495699404.46,3285,14.5,73630.3,4.75,0.09,0.17,0,*78
1495699405.67,3286,14.5,73630.5,4.75,0.05,0.17,0,*77
1495699406.88,3287,14.5,73632.5,4.77,0.29,0.37,0,*48
1495699408.11,3288,14.5,73632.8,4.75,0.33,0.37,0,*4E
1495699409.28,3289,14.5,73630.5,4.77,-0.15,-0.07,0,*7A
1495699410.5,3290,14.5,73632.5,4.77,0.47,0.59,0,*4E
1495699411.72,3291,14.5,73634.0,4.77,0.83,0.87,0,*44
1495699412.95,3292,14.5,73632.8,4.79,0.51,0.51,0,*4D
1495699414.17,3293,14.5,73634.3,4.81,0.51,0.55,0,*4F
1495699415.35,3294,14.5,73634.3,4.81,0.43,0.51,0,*4F
1495699416.57,3295,14.5,73634.3,4.81,0.87,0.91,0,*4A
1495699417.81,3296,14.5,73634.0,4.87,0.79,0.79,0,*48
1495699419.04,3297,14.5,73634.8,4.87,0.83,0.95,0,*4E
1495699420.26,3298,14.5,73630.5,4.91,1.01,1.17,0,*46
1495699421.48,3299,14.5,73630.3,4.91,1.01,1.09,0,*48
1495699422.71,3300,14.5,73632.0,4.91,0.63,0.67,0,*45
1495699423.93,3301,14.5,73632.3,4.93,0.91,1.01,0,*7A
1495699425.17,3302,14.5,73632.8,4.95,1.13,1.13,0,*47
1495699426.38,3303,14.5,73634.5,4.95,0.71,0.83,0,*4B
1495699427.62,3304,14.5,73626.5,4.97,0.83,0.95,0,*44
1495699428.83,3305,14.5,73632.3,4.99,0.67,0.59,0,*41
1495699430.05,3306,14.5,73632.5,4.97,0.59,0.67,0,*4C
1495699431.29,3307,14.5,73632.3,4.97,0.71,0.79,0,*48
1495699432.48,3308,14.5,73632.5,4.99,0.87,0.97,0,*40
1495699433.68,3309,14.5,73634.5,5.03,1.01,1.21,0,*40
1495699434.91,3310,14.5,73632.5,5.03,0.91,1.09,0,*7A
1495699436.09,3311,14.5,73634.0,5.03,0.79,0.97,0,*4B
1495699437.31,3312,14.5,73634.5,5.09,0.91,1.01,0,*7A
1495699438.53,3313,14.5,73632.0,5.07,0.71,0.91,0,*43
1495699439.77,3314,14.5,73632.3,5.09,0.71,0.91,0,*4A
1495699441.0,3315,14.5,73632.0,5.09,0.59,0.83,0,*42
1495699442.24,3316,14.5,73634.5,5.09,0.79,0.95,0,*44
1495699443.44,3317,14.5,73634.0,5.15,0.37,0.47,0,*4D
1495699444.65,3318,14.5,73630.8,5.11,0.63,0.87,0,*4B
1495699445.87,3319,14.5,73634.5,5.13,1.01,1.33,0,*43
1495699447.1,3320,14.5,73630.8,5.13,0.59,0.75,0,*46
1495699448.33,3321,14.5,73632.0,5.13,0.63,0.67,0,*4D
1495699449.56,3322,14.5,73630.8,5.17,0.95,1.17,0,*75
1495699450.79,3323,14.5,73632.8,5.17,1.01,1.17,0,*48
1495699452.02,3324,14.5,73628.5,5.17,0.21,0.21,0,*48
1495699453.25,3325,14.5,73628.3,5.17,0.29,0.41,0,*47
1495699454.46,3326,14.5,73632.5,5.17,0.09,0.29,0,*78
1495699455.64,3327,14.5,73634.3,5.19,0.41,0.43,0,*47
1495699456.83,3328,14.5,73630.5,5.19,-0.41,-0.33,0,*4F
1495699458.01,3329,14.5,73626.3,5.19,-0.03,0.17,0,*53
1495699459.24,3330,14.5,73630.8,5.21,0.37,0.47,0,*4F
1495699460.43,3331,14.5,73632.3,5.19,0.29,0.43,0,*4E
1495699461.63,3332,14.5,73630.8,5.19,0.29,0.29,0,*41
1495699462.8,3333,14.5,73632.0,5.19,-0.03,0.05,0,*6B
1495699464.03,3334,14.5,73630.3,5.21,0.21,0.25,0,*48
1495699465.19,3335,14.5,73630.3,5.19,-0.03,0.09,0,*61
1495699466.39,3336,14.5,73628.5,5.19,-0.23,-0.07,0,*73
1495699467.56,3337,14.5,73628.0,5.19,-0.45,-0.45,0,*44
1495699468.75,3338,14.5,73626.8,5.21,-0.49,-0.29,0,*46
1495699469.93,3339,14.5,73626.8,5.19,-0.41,-0.15,0,*4B
1495699471.12,3340,14.5,73626.0,5.19,-0.03,0.17,0,*5C
1495699472.3,3341,14.5,73630.5,5.19,0.09,0.29,0,*77
1495699473.52,3342,14.5,73626.3,5.19,0.51,0.63,0,*47
1495699474.7,3343,14.5,73628.5,5.19,0.05,0.17,0,*74
1495699475.9,3344,14.5,73624.8,5.19,0.21,0.41,0,*46
1495699477.13,3345,14.5,73632.8,5.21,0.37,0.37,0,*4A
1495699478.32,3346,14.5,73632.3,5.19,0.09,0.21,0,*78
1495699479.55,3347,14.5,73630.0,5.21,0.37,0.55,0,*4C
1495699480.78,3348,14.5,73630.5,5.21,0.47,0.59,0,*48
1495699481.98,3349,14.5,73634.0,5.21,0.43,0.47,0,*42
1495699483.21,3350,14.5,73626.5,5.21,0.37,0.55,0,*4A
1495699484.41,3351,14.5,73626.0,5.23,-0.41,-0.27,0,*4D
1495699485.6,3352,14.5,73624.8,5.21,-0.19,-0.03,0,*77
1495699486.81,3353,14.5,73616.5,5.23,0.25,0.33,0,*48
1495699488.01,3354,14.5,73624.3,5.23,0.13,0.33,0,*4A
1495699489.21,3355,14.5,73628.5,5.23,0.21,0.25,0,*4D
1495699490.39,3356,14.5,73626.5,5.23,0.09,0.13,0,*71
1495699491.57,3357,14.5,73620.3,5.23,0.43,0.55,0,*4C
1495699492.77,3358,14.5,73630.0,5.23,0.37,0.47,0,*43
1495699493.98,3359,14.5,73626.5,5.25,0.29,0.41,0,*4D
1495699495.19,3360,14.5,73630.3,5.25,0.25,0.25,0,*49
1495699496.37,3361,14.5,73628.5,5.25,0.05,0.17,0,*7B
1495699497.57,3362,14.5,73628.3,5.25,0.13,0.17,0,*4F
1495699498.78,3363,14.5,73626.5,5.23,0.21,0.33,0,*4F
1495699499.95,3364,14.5,73632.3,5.25,-0.33,-0.15,0,*49
1495699501.16,3365,14.5,73630.5,5.25,0.41,0.51,0,*4D
1495699502.34,3366,14.5,73630.0,5.25,-0.45,-0.33,0,*4E
1495699503.52,3367,14.5,73626.3,5.25,0.01,0.17,0,*79
1495699504.72,3368,14.5,73630.8,5.25,0.17,0.29,0,*4C
1495699505.93,3369,14.5,73628.0,5.25,0.37,0.47,0,*47
1495699507.11,3370,14.5,73628.3,5.25,0.01,0.25,0,*7E
1495699508.32,3371,14.5,73626.8,5.25,0.47,0.59,0,*46
1495699509.55,3372,14.5,73630.0,5.31,-0.23,-0.19,0,*46
1495699510.72,3373,14.5,73632.5,5.29,-0.11,-0.07,0,*70
1495699511.92,3374,14.5,73630.0,5.31,-0.11,0.05,0,*51
1495699513.09,3375,14.5,73626.8,5.29,0.05,0.17,0,*72
1495699514.3,3376,14.5,73628.3,5.29,0.29,0.41,0,*4C
1495699515.46,3377,14.5,73624.3,5.29,-0.33,-0.29,0,*48
1495699516.63,3378,14.5,73630.5,5.29,-0.19,-0.03,0,*77
1495699517.82,3379,14.5,73626.5,5.29,-0.33,-0.23,0,*4C
1495699519.02,3380,14.5,73630.3,5.29,-0.03,0.21,0,*56
1495699520.19,3381,14.5,73630.3,5.29,-0.29,-0.11,0,*41
1495699521.38,3382,14.5,73630.0,5.29,-0.23,-0.07,0,*7F
1495699522.56,3383,14.5,73626.0,5.29,0.29,0.43,0,*44
1495699523.78,3384,14.5,73628.0,5.25,0.41,0.51,0,*42
1495699524.98,3385,14.5,73628.5,5.29,0.63,0.75,0,*49
1495699526.18,3386,14.5,73630.8,5.29,0.17,0.29,0,*40
1495699527.4,3387,14.5,73628.0,5.31,0.05,0.21,0,*73
1495699528.63,3388,14.5,73630.8,5.31,0.55,0.67,0,*4B
1495699529.84,3389,14.5,73634.3,5.31,0.43,0.51,0,*48
1495699531.06,3390,14.5,73628.3,5.31,0.33,0.41,0,*46
1495699532.24,3391,14.5,73626.0,5.29,-0.81,-0.69,0,*4D
1495699533.45,3392,14.5,73628.3,5.31,-0.03,0.21,0,*5C
1495699534.65,3393,14.5,73634.0,5.31,-0.19,-0.07,0,*7F
1495699535.83,3394,14.5,73630.5,5.29,0.05,0.29,0,*70
1495699537.05,3395,14.5,73624.8,5.31,-0.29,-0.23,0,*4C
1495699538.25,3396,14.5,73626.0,5.31,-0.11,0.05,0,*5D
1495699539.45,3397,14.5,73624.3,5.31,-0.11,-0.03,0,*77
1495699540.64,3398,14.5,73626.3,5.31,-0.81,-0.65,0,*41
1495699541.82,3399,14.5,73630.8,5.29,-0.53,-0.41,0,*40
1495699543.0,3400,14.5,73634.0,5.29,-0.53,-0.41,0,*47
1495699544.17,3401,14.5,73632.8,5.29,-0.29,-0.19,0,*46
1495699545.34,3402,14.5,73628.8,5.29,-0.07,-0.07,0,*46
1495699546.52,3403,14.5,73632.0,5.31,-0.07,0.09,0,*6D
1495699547.7,3404,14.5,73636.0,5.25,-0.45,-0.49,0,*40
1495699548.87,3405,14.5,73638.5,5.29,-0.19,-0.07,0,*7E
1495699550.07,3406,14.5,73634.3,5.31,-0.69,-0.69,0,*4B
1495699551.25,3407,14.5,73636.3,5.29,-0.57,-0.41,0,*44
1495699552.43,3408,14.5,73638.8,5.29,0.05,0.17,0,*7F
1495699553.63,3409,14.5,73638.3,5.29,-0.19,-0.23,0,*44
1495699554.86,3410,14.5,73634.3,5.31,-0.85,-1.17,0,*76
1495699556.03,3411,14.5,73632.5,5.29,-0.41,-0.45,0,*40
1495699557.22,3412,14.5,73630.0,5.31,0.09,0.09,0,*4E
1495699558.43,3413,14.5,73634.5,5.29,-0.23,-0.23,0,*46
1495699559.59,3414,14.5,73638.0,5.29,0.05,0.09,0,*4D
1495699560.79,3415,14.5,73636.8,5.31,-0.65,-0.69,0,*45
1495699561.97,3416,14.5,73634.3,5.29,0.17,0.09,0,*7C
1495699563.2,3417,14.5,73634.3,5.31,0.41,0.41,0,*4B
1495699564.43,3418,14.5,73640.5,5.31,0.21,0.17,0,*41
1495699565.62,3419,14.5,73638.8,5.31,0.09,-0.03,0,*62
1495699566.78,3420,14.5,73636.3,5.29,-0.07,-0.33,0,*71
1495699567.99,3421,14.5,73638.0,5.31,-0.41,-0.45,0,*4A
1495699569.18,3422,14.5,73636.3,5.31,-0.03,-0.03,0,*4D
1495699570.41,3423,14.5,73636.0,5.31,-0.23,-0.11,0,*4D
1495699571.57,3424,14.5,73638.0,5.33,-0.29,-0.29,0,*49
1495699572.75,3425,14.5,73634.0,5.33,0.01,0.21,0,*7A
1495699573.92,3426,14.5,73636.5,5.33,-0.61,-0.53,0,*4A
1495699575.13,3427,14.5,73634.5,5.31,-0.29,-0.23,0,*42
1495699576.33,3428,14.5,73636.5,5.31,-0.29,-0.33,0,*4C
1495699577.53,3429,14.5,73640.0,5.31,-0.11,-0.07,0,*71
1495699578.7,3430,14.5,73636.5,5.33,-0.15,-0.19,0,*40
1495699579.9,3431,14.5,73632.8,5.33,-0.19,-0.27,0,*40
1495699581.14,3432,14.5,73636.3,5.35,0.47,0.55,0,*4B
1495699582.32,3433,14.5,73638.3,5.33,0.43,0.55,0,*48
1495699583.52,3434,14.5,73640.5,5.33,0.33,0.33,0,*48
1495699584.73,3435,14.5,73640.5,5.33,0.21,0.13,0,*48
1495699585.9,3436,14.5,73638.0,5.33,-0.15,-0.15,0,*4A
1495699587.11,3437,14.5,73638.5,5.31,0.05,0.17,0,*7A
1495699588.29,3438,14.5,73638.5,5.33,0.43,0.55,0,*43
1495699589.47,3439,14.5,73640.5,5.33,0.43,0.47,0,*41
1495699590.63,3440,14.5,73636.5,5.33,-0.07,-0.07,0,*4B
1495699591.79,3441,14.5,73636.3,5.33,-0.61,-0.53,0,*4B
1495699592.98,3442,14.5,73640.3,5.33,-0.07,0.21,0,*50
1495699594.17,3443,14.5,73640.3,5.33,-0.03,0.33,0,*56
1495699595.34,3444,14.5,73644.3,5.33,-0.37,-0.19,0,*43
1495699596.53,3445,14.5,73642.8,5.33,-0.27,-0.03,0,*78
1495699597.74,3446,14.5,73642.8,5.35,-0.49,-0.37,0,*42
1495699598.91,3447,14.5,73640.0,5.33,-0.61,-0.41,0,*4E
1495699600.09,3448,14.5,73638.3,5.33,-0.65,-0.41,0,*45
1495699601.26,3449,14.5,73638.0,5.33,-0.53,-0.29,0,*4F
1495699602.48,3450,14.5,73636.0,5.31,-0.23,-0.03,0,*7A
1495699603.67,3451,14.5,73640.5,5.33,-0.27,-0.03,0,*7D
1495699604.84,3452,14.5,73642.8,5.33,-0.41,-0.29,0,*46
1495699606.01,3453,14.5,73636.0,5.33,-0.61,-0.37,0,*4A
1495699607.24,3454,14.5,73634.8,5.31,-1.05,-0.65,0,*7B
1495699608.45,3455,14.5,73636.3,5.31,-0.41,-0.19,0,*40
1495699609.65,3456,14.5,73638.5,5.31,0.09,0.41,0,*72
1495699610.88,3457,14.5,73636.5,5.31,-0.11,0.21,0,*61
1495699612.06,3458,14.5,73634.0,5.31,-0.29,0.09,0,*5F
1495699613.3,3459,14.5,73632.3,5.31,0.21,0.63,0,*47
1495699614.47,3460,14.5,73632.0,5.33,-0.19,-0.03,0,*72
1495699615.64,3461,14.5,73630.3,5.33,-0.65,-0.49,0,*46
1495699616.85,3462,14.5,73634.3,5.33,-1.01,-0.73,0,*7F
1495699618.04,3463,14.5,73634.3,5.33,-0.49,-0.27,0,*42
1495699619.26,3464,14.5,73628.0,5.31,-0.23,-0.03,0,*7D
1495699620.45,3465,14.5,73630.3,5.31,-0.33,-0.07,0,*79
1495699621.65,3466,14.5,73632.5,5.31,-0.53,-0.29,0,*40
1495699622.86,3467,14.5,73634.5,5.31,-0.41,-0.11,0,*49
1495699624.07,3468,14.5,73632.3,5.31,0.05,0.29,0,*7D
1495699625.28,3469,14.5,73632.5,5.31,0.05,0.29,0,*7C
1495699626.49,3470,14.5,73632.3,5.31,0.29,0.43,0,*46
1495699627.71,3471,14.5,73628.3,5.31,-0.41,-0.23,0,*4F
1495699628.88,3472,14.5,73630.8,5.33,-0.19,-0.03,0,*71
1495699630.05,3473,14.5,73634.5,5.33,-0.77,-0.53,0,*4D
1495699631.26,3474,14.5,73634.0,5.31,-0.65,-0.33,0,*4D
1495699632.5,3475,14.5,73636.5,5.31,-0.97,-0.85,0,*4C
1495699633.67,3476,14.5,73640.8,5.29,-0.33,-0.19,0,*4D
1495699634.85,3477,14.5,73636.5,5.29,-0.41,-0.29,0,*4A
1495699636.06,3478,14.5,73638.0,5.29,-1.17,-1.05,0,*48
1495699637.24,3479,14.5,73646.3,5.29,-1.33,-1.29,0,*41
1495699638.46,3480,14.5,73636.8,5.29,-1.17,-1.05,0,*4F
1495699639.64,3481,14.5,73634.3,5.25,-0.69,-0.37,0,*4A
1495699640.84,3482,14.5,73626.0,5.25,-0.57,-0.27,0,*45
1495699642.04,3483,14.5,73624.5,5.23,-0.41,-0.27,0,*45
1495699643.27,3484,14.5,73628.5,5.25,-1.47,-1.35,0,*41
1495699644.47,3485,14.5,73628.0,5.23,-1.25,-1.13,0,*46
1495699645.65,3486,14.5,73624.8,5.23,-0.61,-0.41,0,*42
1495699646.82,3487,14.5,73630.3,5.23,-0.53,-0.37,0,*43
1495699648.01,3488,14.5,73630.3,5.23,-0.27,0.01,0,*57
1495699649.21,3489,14.5,73626.5,5.23,-0.89,-0.77,0,*4E
1495699650.37,3490,14.5,73628.5,5.23,-0.49,-0.29,0,*41
1495699651.54,3491,14.5,73638.8,5.23,-0.53,-0.29,0,*4B
1495699652.73,3492,14.5,73636.3,5.23,-0.15,0.13,0,*6E
1495699653.92,3493,14.5,73632.8,5.25,-1.29,-1.29,0,*42
1495699655.15,3494,14.5,73626.5,5.21,-1.99,-1.79,0,*4F
1495699656.36,3495,14.5,73624.3,5.19,-1.51,-1.39,0,*45
1495699657.56,3496,14.5,73626.8,5.19,-1.09,-0.81,0,*79
1495699658.74,3497,14.5,73628.5,5.19,-0.81,-0.65,0,*43
1495699659.95,3498,14.5,73634.8,5.19,-1.05,-0.81,0,*7B
1495699661.12,3499,14.5,73634.5,5.19,-0.53,-0.33,0,*41
1495699662.3,3500,14.5,73634.8,5.19,-0.41,-0.29,0,*48
1495699663.51,3501,14.5,73626.3,5.17,-0.07,0.17,0,*55
1495699664.71,3502,14.5,73624.5,5.17,-0.57,-0.41,0,*4D
1495699665.98,3503,14.5,73628.5,5.17,-1.05,-1.05,0,*4B
1495699667.17,3504,14.5,73632.0,5.17,-0.81,-0.65,0,*46
1495699668.35,3505,14.5,73634.5,5.15,-0.33,-0.11,0,*4F
1495699669.58,3506,14.5,73632.5,5.17,-0.41,-0.23,0,*4A
1495699670.79,3507,14.5,73634.0,5.17,-0.29,-0.23,0,*45
1495699672.01,3508,14.5,73636.0,5.17,-0.15,0.17,0,*6F
1495699673.19,3509,14.5,73630.8,5.17,-0.07,0.09,0,*62
1495699674.38,3510,14.5,73632.8,5.17,-0.15,0.09,0,*59
1495699675.55,3511,14.5,73634.0,5.19,-0.07,0.09,0,*65
1495699676.72,3512,14.5,73638.0,5.19,-0.57,-0.53,0,*41
1495699677.9,3513,14.5,73630.0,5.19,-1.51,-1.33,0,*40
1495699679.1,3514,14.5,73622.3,5.19,-1.91,-1.75,0,*49
1495699680.34,3515,14.5,73628.0,5.17,-1.21,-1.09,0,*46
1495699681.56,3516,14.5,73628.8,5.15,-1.01,-0.85,0,*70
1495699682.77,3517,14.5,73628.5,5.15,-1.09,-0.81,0,*7D
1495699683.99,3518,14.5,73632.3,5.17,-0.33,-0.27,0,*44
1495699685.16,3519,14.5,73632.5,5.15,-0.45,-0.33,0,*43
1495699686.36,3520,14.5,73632.5,5.15,-0.37,-0.27,0,*49
1495699687.56,3521,14.5,73636.3,5.17,-0.53,-0.45,0,*4C
1495699688.75,3522,14.5,73632.8,5.17,-0.33,-0.29,0,*43
1495699689.93,3523,14.5,73632.3,5.15,-0.11,-0.07,0,*7C
1495699691.12,3524,14.5,73634.3,5.17,-0.15,0.05,0,*52
1495699692.35,3525,14.5,73636.3,5.17,0.17,0.29,0,*42
1495699693.58,3526,14.56,73636.3,5.17,0.21,0.29,0,*44
1495699694.81,3527,14.5,73634.8,5.17,0.21,0.51,0,*4A
1495699696.01,3528,14.5,73634.8,5.17,-0.03,-0.07,0,*46
1495699697.22,3529,14.5,73634.3,5.17,-0.33,-0.23,0,*42
1495699698.45,3530,14.5,73634.8,5.17,0.17,0.33,0,*4D
1495699699.66,3531,14.5,73632.5,5.19,0.21,0.29,0,*4C
1495699700.83,3532,14.5,73632.5,5.19,-0.15,-0.03,0,*70
1495699702.06,3533,14.5,73632.0,5.21,0.47,0.67,0,*4F
1495699703.28,3534,14.5,73634.5,5.21,0.59,0.71,0,*40
1495699704.46,3535,14.5,73634.5,5.21,0.01,0.09,0,*43
1495699705.67,3536,14.5,73634.3,5.21,-0.29,-0.27,0,*46
1495699706.87,3537,14.5,73634.8,5.23,0.13,0.25,0,*4E
1495699708.07,3538,14.5,73638.3,5.21,-0.19,-0.03,0,*7D
1495699709.25,3539,14.5,73634.3,5.23,0.43,0.55,0,*42
1495699710.46,3540,14.5,73636.8,5.25,0.47,0.59,0,*42
1495699711.66,3541,14.5,73634.5,5.25,0.37,0.41,0,*4D
1495699712.87,3542,14.5,73632.8,5.23,0.25,0.33,0,*4E
1495699714.08,3543,14.5,73638.8,5.25,0.29,0.29,0,*4E
1495699715.28,3544,14.5,73636.0,5.25,0.25,0.37,0,*4A
1495699716.5,3545,14.5,73636.5,5.25,0.47,0.63,0,*4E
1495699717.67,3546,14.5,73640.3,5.25,-0.81,-0.69,0,*4D
1495699718.85,3547,14.5,73638.3,5.25,-0.11,-0.07,0,*7D
1495699720.02,3548,14.5,73638.0,5.23,0.43,0.63,0,*41
1495699721.23,3549,14.5,73638.8,5.25,0.37,0.37,0,*44
1495699722.41,3550,14.5,73636.8,5.29,0.43,0.51,0,*43
1495699723.65,3551,14.5,73634.5,5.31,0.21,0.21,0,*48
1495699724.82,3552,14.5,73642.0,5.29,-0.29,-0.33,0,*49
1495699726.02,3553,14.5,73642.0,5.29,0.17,0.21,0,*46
1495699727.2,3554,14.5,73642.3,5.31,0.43,0.43,0,*4D
1495699728.38,3555,14.5,73636.5,5.29,-0.33,-0.33,0,*45
1495699729.58,3556,14.5,73638.3,5.31,0.43,0.63,0,*4D